Location: Pontbriand
(46.1542°N, 71.2542°W)
Time: 04:26:35
(UTC+00:00)

Envisat - Visible Passes

Search period start: 02 October 2022 00:00
Search period end: 12 October 2022 00:00
Orbit: 764 x 765 km, 98.2° (Epoch: 01 October)

Date Brightness Start Highest point End Pass type
(mag) Time Alt. Az. Time Alt. Az. Time Alt. Az.
02 Oct 5.5 07:59:24 10° NE 08:02:58 19° E 08:06:32 10° SE visible
02 Oct 3.0 09:37:22 10° N 09:42:22 60° WNW 09:47:21 10° SSW visible
03 Oct 3.3 09:00:22 10° NNE 09:05:27 66° ESE 09:10:29 10° S visible
04 Oct 4.7 08:23:48 10° NNE 08:28:19 31° E 08:32:48 10° SSE visible
04 Oct 3.6 10:02:42 10° N 10:07:20 36° WNW 10:11:57 10° SW visible
05 Oct 5.8 07:48:06 10° NE 07:50:58 15° E 07:53:50 10° ESE visible
05 Oct 2.9 09:25:27 10° N 09:30:33 75° WNW 09:35:36 10° SSW visible
06 Oct 3.8 08:48:34 10° NNE 08:53:33 52° E 08:58:29 10° S visible
07 Oct 5.1 08:12:11 10° NE 08:16:21 25° E 08:20:29 10° SSE visible
07 Oct 3.3 09:50:43 10° N 09:55:33 45° WNW 10:00:22 10° SW visible
08 Oct 5.9 07:37:14 10° ENE 07:38:56 12° E 07:40:39 10° ESE visible
08 Oct 3.0 09:13:34 10° NNE 09:18:41 87° ESE 09:23:46 10° SSW visible
09 Oct 4.2 08:36:49 10° NNE 08:41:38 41° E 08:46:25 10° SSE visible
09 Oct 3.9 10:16:10 10° N 10:20:28 28° WNW 10:24:45 10° WSW visible
10 Oct 5.4 08:00:40 10° NE 08:04:22 20° E 08:08:02 10° SE visible
10 Oct 3.1 09:38:45 10° N 09:43:44 57° WNW 09:48:41 10° SSW visible
11 Oct 3.2 09:01:43 10° NNE 09:06:49 70° ESE 09:11:52 10° S visible
